Regional Weather Roundup
Issued by NWS Little Rock, AR

Home | Current Version | Previous Version | Graphics & Text | Print | Product List | Glossary On
Versions: 1 2 3 4 5 6 7 8 9 10 11 12 13 14 15 16 17 18 19 20 21 22 23 24 25 26 27 28 29 30 31
000
ASUS44 KLZK 262005
RWRLZK

WEATHER ROUNDUP FOR ARKANSAS
NATIONAL WEATHER SERVICE LITTLE ROCK AR
300 PM CDT FRI MAY 26 2017

NOTE: "FAIR" INDICATES FEW OR NO CLOUDS BELOW 12,000 FEET WITH NO
SIGNIFICANT WEATHER AND/OR OBSTRUCTIONS TO VISIBILITY.

ARZ001-003-010-029-262100-
NORTHWEST ARKANSAS

CITY           SKY/WX    TMP DP  RH WIND       PRES   REMARKS
FAYETTEVILLE   PTSUNNY   83  69  62 SW15      29.78S HX  86
FORT SMITH     PTSUNNY   86  68  54 S13G18    29.75S HX  89
HARRISON       PTSUNNY   82  67  60 SW7       29.79S
BENTONVILLE    PTSUNNY   82  68  61 SW5       29.79S HX  85
ROGERS         CLOUDY    82  69  64 SW13G18   29.78F HX  85
SILOAM SPGS    PTSUNNY   82  66  57 SW12      29.76F HX  85
HIGHFILL       PTSUNNY   83  69  62 SW8       29.78S HX  86
SPRINGDALE     PTSUNNY   79  68  69 SW10      29.80S
$$

ARZ004-005-016-262100-
NORTH CENTRAL ARKANSAS

CITY           SKY/WX    TMP DP  RH WIND       PRES   REMARKS
BATESVILLE     CLOUDY    77  66  69 SW16G23   29.82F
FLIPPIN        PTSUNNY   75  64  69 S8        29.77S
MTN HOME       MOSUNNY   79  67  66 SW12G22   29.78F
$$

ARZ040-041-262100-
WEST CENTRAL ARKANSAS

CITY           SKY/WX    TMP DP  RH WIND       PRES   REMARKS
MENA           CLOUDY    86  77  74 SW6       29.81F HX  97
MOUNT IDA      CLOUDY    82  69  64 VRB5      29.80F HX  85
$$

ARZ009-017-025-026-028-262100-
NORTHEAST ARKANSAS

CITY           SKY/WX    TMP DP  RH WIND       PRES   REMARKS
CORNING        CLOUDY    77  68  73 SW22G30   29.80S
JONESBORO      CLOUDY    80  67  64 SW17G29   29.81F
NEWPORT        PTSUNNY   81  68  64 SW29      29.80F
WALNUT RIDGE   CLOUDY    77  64  65 SW20G29   29.80S
BLYTHEVILLE    CLOUDY    81  65  58 SW23G35   29.83S
NW BLYTHEVILLE CLOUDY    81  66  61 SW25G38   29.82S
$$

ARZ022-023-033-042-044-262100-
CENTRAL ARKANSAS

CITY           SKY/WX    TMP DP  RH WIND       PRES   REMARKS
LITTLE ROCK    PTSUNNY   80  71  74 S14       29.83F
N LITTLE ROCK    N/A     79  71  74 S10G24    29.83F
JACKSONVILLE   PTSUNNY   81  71  71 S13G21    29.83F
CONWAY           N/A     81  70  69 S10G17    29.80S
SEARCY         CLOUDY    78  70  76 S14G22    29.85S
HOT SPRINGS    PTSUNNY   82  72  71 S8        29.82F HX  87
RUSSELLVILLE   MOSUNNY   83  70  64 S8        29.79F HX  87
CLINTON        CLOUDY    73  68  83 S5        29.82F
$$

ARZ036-262100-
EAST ARKANSAS

CITY           SKY/WX    TMP DP  RH WIND       PRES   REMARKS
WEST MEMPHIS   CLOUDY    82  67  60 S21G29    29.85F
$$

ARZ050-053-066-070-073-262100-
SOUTHWEST ARKANSAS

CITY           SKY/WX    TMP DP  RH WIND       PRES   REMARKS
ARKADELPHIA    CLOUDY    84  72  67 S14G20    29.83S HX  89
CAMDEN         PTSUNNY   84  68  58 S13G20    29.84F HX  87
TEXARKANA      PTSUNNY   86  72  62 S20G25    29.82S HX  92
EL DORADO        N/A     83  70  64 S17G31    29.86F HX  87
DE QUEEN       PTSUNNY   87  75  67 S9        29.77F HX  96
$$

ARZ056-057-069-262100-
SOUTHEAST ARKANSAS

CITY           SKY/WX    TMP DP  RH WIND       PRES   REMARKS
PINE BLUFF     CLOUDY    80  69  69 S14G24    29.86F
STUTTGART      CLOUDY   N/A N/A N/A S23G30    29.86F
MONTICELLO     CLOUDY    83  69  62 S14G22    29.88F HX  86

$$






USA.gov is the U.S. government's official web portal to all federal, state and local government web resources and services.